Jaffrey, NH

3:49 AM EDT on June 25, 2017 (GMT -0400)
Jaffrey Airport-Silver Ranch

Weather History for KAFN - March, 2013

Change the Weather History Date:

Monday, March 4, 2013

  Actual Average Record
Temperature  
Mean Temperature 28 °F -  
Max Temperature 32 °F 34 °F 52 °F (1999)
Min Temperature 23 °F 17 °F -6 °F (2014)
Degree Days  
Heating Degree Days 38    
Moisture  
Dew Point 19 °F    
Average Humidity 69    
Maximum Humidity 78    
Minimum Humidity 59    
Precipitation  
Precipitation 0.00 in - - ()
Sea Level Pressure  
Sea Level Pressure 29.67 in    
Wind  
Wind Speed 8 mph (NW)    
Max Wind Speed 14 mph    
Max Gust Speed 24 mph    
Visibility 9 miles    
Events Snow    
Averages and records for this station are not official NWS values.
T = Trace of Precipitation, MM = Missing Value Source: NWS Daily Summary

Daily Weather History Graph

Daily Weather History Graph

Search for Another Location

Airport or City:

Trip Planner

Search our weather history database for the weather conditions in past years. The results will help you decide how hot, cold, wet, or windy it might be!

Date:

Astronomy

Mar. 04, 2013 Rise Set
Actual Time 6:18 AM EST 5:41 PM EST
Civil Twilight 5:50 AM EST 6:09 PM EST
Nautical Twilight 5:17 AM EST 6:42 PM EST
Astronomical Twilight 4:44 AM EST 7:15 PM EST
Moon 12:30 AM EST (3/4) 10:14 AM EST (3/4)
Length of Visible Light 12h 19m
Length of Day
11h 22m
Waning Gibbous, 52% of the Moon is Illuminated
Mar 4
Waning Gibbous
Mar 4
Last Quarter
Mar 11
New
Mar 19
First Quarter
Mar 27
Full

Hourly Weather History & Observations

Time (EST) Temp. Windchill Dew Point Humidity Pressure Visibility Wind Dir Wind Speed Gust Speed Precip Events Conditions
12:52 AM 28.0 °F 20.8 °F 21.0 °F 75% 29.65 in 10.0 mi Variable 6.9 mph - N/A   Overcast
1:52 AM 27.0 °F 19.5 °F 21.0 °F 78% 29.65 in 10.0 mi NW 6.9 mph - N/A   Overcast
2:52 AM 26.1 °F 17.6 °F 19.0 °F 75% 29.64 in 10.0 mi NW 8.1 mph 17.3 mph N/A   Overcast
3:52 AM 26.1 °F 19.4 °F 18.0 °F 71% 29.65 in 10.0 mi WNW 5.8 mph - N/A   Mostly Cloudy
4:45 AM 24.8 °F 17.9 °F 17.6 °F 74% 29.60 in 10.0 mi West 5.8 mph - N/A   Mostly Cloudy
4:52 AM 24.1 °F 14.4 °F 17.1 °F 75% 29.66 in 10.0 mi West 9.2 mph - N/A   Scattered Clouds
6:25 AM 23.0 °F 13.1 °F 15.8 °F 74% 29.61 in 10.0 mi WNW 9.2 mph 23.0 mph N/A   Mostly Cloudy
6:52 AM 23.0 °F 14.7 °F 16.0 °F 74% 29.67 in 10.0 mi Variable 6.9 mph 18.4 mph N/A   Overcast
7:52 AM 24.1 °F 14.4 °F 16.0 °F 71% 29.67 in 10.0 mi West 9.2 mph - N/A   Overcast
8:14 AM 24.8 °F 15.3 °F 15.8 °F 69% 29.62 in 10.0 mi NW 9.2 mph 20.7 mph N/A   Scattered Clouds
8:45 AM 24.8 °F 16.1 °F 15.8 °F 69% 29.62 in 10.0 mi WNW 8.1 mph 18.4 mph N/A   Mostly Cloudy
8:52 AM 26.1 °F 17.6 °F 16.0 °F 66% 29.67 in 10.0 mi NW 8.1 mph 20.7 mph N/A   Mostly Cloudy
9:52 AM 27.0 °F 19.5 °F 17.1 °F 66% 29.66 in 10.0 mi Variable 6.9 mph 21.9 mph N/A   Mostly Cloudy
10:52 AM 28.9 °F 23.9 °F 17.1 °F 61% 29.65 in 10.0 mi Variable 4.6 mph - N/A   Overcast
11:07 AM 28.4 °F 19.7 °F 17.6 °F 64% 29.60 in 10.0 mi WNW 9.2 mph 16.1 mph N/A   Mostly Cloudy
11:52 AM 30.9 °F 24.3 °F 18.0 °F 59% 29.65 in 10.0 mi WNW 6.9 mph - N/A   Overcast
12:52 PM 32.0 °F 22.1 °F 19.0 °F 59% 29.64 in 10.0 mi WNW 13.8 mph 24.2 mph N/A   Overcast
1:52 PM 30.9 °F 21.7 °F 19.0 °F 61% 29.63 in 10.0 mi WNW 11.5 mph 19.6 mph N/A   Overcast
2:52 PM 32.0 °F 22.5 °F 19.0 °F 59% 29.64 in 10.0 mi WNW 12.7 mph 20.7 mph 0.00 in   Overcast
3:52 PM 30.9 °F 20.7 °F 21.0 °F 67% 29.65 in 10.0 mi WNW 13.8 mph 19.6 mph N/A   Overcast
4:52 PM 30.0 °F 23.2 °F 21.0 °F 69% 29.67 in 3.0 mi Variable 6.9 mph 20.7 mph 0.00 in Snow Light Snow
5:09 PM 30.2 °F 22.6 °F 21.2 °F 69% 29.62 in 2.5 mi WNW 8.1 mph 19.6 mph 0.00 in Snow Light Snow
5:16 PM 30.2 °F 22.6 °F 21.2 °F 69% 29.62 in 8.0 mi NW 8.1 mph 16.1 mph 0.00 in Snow Light Snow
5:52 PM 30.9 °F 26.2 °F 19.9 °F 64% 29.70 in 9.0 mi Variable 4.6 mph - 0.00 in   Overcast
6:52 PM 28.9 °F 21.1 °F 19.9 °F 69% 29.73 in 10.0 mi NNW 8.1 mph 17.3 mph 0.00 in   Overcast
7:52 PM 28.9 °F 21.9 °F 19.9 °F 69% 29.75 in 10.0 mi Variable 6.9 mph 17.3 mph N/A   Overcast
8:52 PM 28.0 °F 20.8 °F 19.9 °F 72% 29.77 in 10.0 mi Variable 6.9 mph - 0.00 in   Overcast
9:23 PM 26.6 °F 22.6 °F 19.4 °F 74% 29.72 in 10.0 mi Variable 3.5 mph - N/A   Overcast
9:52 PM 27.0 °F 20.5 °F 19.0 °F 72% 29.78 in 10.0 mi North 5.8 mph - N/A   Overcast
10:52 PM 27.0 °F 20.5 °F 19.0 °F 72% 29.80 in 10.0 mi NNW 5.8 mph - N/A   Overcast
11:52 PM 26.1 °F 18.4 °F 19.0 °F 75% 29.80 in 10.0 mi North 6.9 mph - N/A   Clear